Hourly Data Report for February 01, 2002

SHERBROOKE A
QUEBEC

45°26'00.000" N
71°41'00.000" W
241.40 m
7028124
71610
YSC

Download Data

Hourly Data (February 2002)
Hourly Data Report for February 1, 2002
TIME
LST
Temp Definition
°C
Dew Point Definition
°C
Rel Hum Definition
%
Precip. Amount Definition
mm

Wind Dir Definition
10's deg

Wind Spd Definition
km/h
Visibility Definition
km
Stn Press Definition
kPa
Hmdx Definition


Wind Chill Definition


Weather Definition


00:00 -10.6 -13.4 80   5 9 1.6 99.42   -16 Snow
01:00 -10.1 -12.7 81   6 7 4.0 99.31   -14  
02:00 -9.4 -11.7 83   5 6 4.0 99.25   -13 Freezing Drizzle
03:00 -9.2 -11.5 83   6 11 4.8 99.12   -15 Snow
04:00 -8.9 -11.1 84   6 11 8.0 99.01   -14 Snow
05:00 -8.6 -10.9 83   5 9 4.0 98.85   -13 Snow
06:00 -8.0 -10.4 83   6 9 2.3 98.67   -13 Snow
07:00 -7.5 -9.9 83   5 7 12.9 98.55   -11  
08:00 -5.4 -8.0 82   7 9 16.1 98.38   -9 Freezing Rain
09:00 -4.5 -7.2 81   12 15 12.9 98.16   -10 Freezing Rain
10:00 -2.8 -5.5 82   12 26 11.3 97.99   -10 Freezing Rain,Ice Pellets
11:00 -2.1 -4.6 83   10 17 6.4 97.84   -7 Freezing Rain,Ice Pellets, Fog
12:00 -0.5 -2.5 86   13 22 24.1 97.32   -6 Snow
13:00 0.9 -2.0 81   14 22 24.1 96.98     Rain Showers
14:00 1.1 -1.3 84   18 15 24.1 96.81     Rain Showers
15:00 0.6 -1.4 86   13 7 24.1 96.66     Cloudy
16:00 0.8 -0.1 94   30 6 4.8 96.77     Rain, Fog
17:00 1.3 0.2 92   20 9 24.1 96.70     Rain Showers
18:00 2.3 0.6 89   22 19 15.0 96.78     Rain
19:00 2.4 -0.6 81   22 17 15.0 96.78      
20:00 2.3 -2.6 70   25 28 15.0 96.70      
21:00 -0.7 -1.7 93   27 57 0.6 96.76   -10 Snow
22:00 -5.8 -10.2 71   27 43 1.8 97.23   -15 Snow
23:00 -8.2 -13.7 65   26 41 4.0 97.41   -18 Snow

Notes on Data Quality.

Legend

  • E = Estimated
  • M = Missing
  • NA = Not Available*
  • [empty] = Indicates an unobserved value
Date modified: